Location: Little Chesterford
(52.0500°N, 0.1833°E)
Time: 11:36:25
(UTC+00:00)

Cosmos 1452 Rocket - Pass Details

Date: 26 September 2023
Orbit: 767 x 772 km, 74.1° (Epoch: 28 November)

Event Time Altitude Azimuth Distance (km) Brightness Sun altitude
Rises 18:23:38 0° 333° (NNW) 3,262 7.3 -6.1°
Reaches altitude 10° 18:26:02 10° 332° (NNW) 2,330 6.5 -6.5°
Maximum altitude 18:31:18 73° 249° (WSW) 813 3.9 -7.3°
Drops below altitude 10° 18:36:32 10° 165° (SSE) 2,311 5.8 -8.1°
Sets 18:38:54 0° 164° (SSE) 3,232 6.5 -8.5°
